Location: Casilda
(33.0440°S, 61.1680°W)
Time: 19:50:11
(UTC-03:00)

ISS - Pass Details

Date: 25 November 2022
Orbit: 414 x 420 km, 51.6° (Epoch: 02 December)

Event Time Altitude Azimuth Distance (km) Brightness Sun altitude
Exits shadow 03:39:11 36° 82° (E) 692 -2.5 -23.0°
Drops below altitude 10° 03:41:44 10° 120° (ESE) 1,524 0.1 -22.6°
Sets 03:43:55 0° 127° (SE) 2,397 1.5 -22.3°
